Time,TemperatureF,DewpointF,PressureIn,WindDirection,WindDirectionDegrees,WindSpeedMPH,WindSpeedGustMPH,Humidity,HourlyPrecipIn,Conditions,Clouds,dailyrainin,SoftwareType,DateUTC
2013-02-08 00:00:00,52.3,23.3,29.95,NNE,22,17.0,29.0,32,0.00,,,-99.99,WeatherLink 5.7,2013-02-08 07:00:00,
2013-02-08 00:05:00,52.3,23.3,29.93,NNE,22,18.0,28.0,32,0.00,,,-99.99,WeatherLink 5.7,2013-02-08 07:05:00,
2013-02-08 00:10:00,52.3,23.3,29.93,North,0,18.0,24.0,32,0.00,,,-99.99,WeatherLink 5.7,2013-02-08 07:10:00,
2013-02-08 00:15:00,52.3,23.3,29.94,NNE,22,17.0,28.0,32,0.00,,,-99.99,WeatherLink 5.7,2013-02-08 07:15:00,
2013-02-08 00:20:00,52.1,23.8,29.94,NNE,22,18.0,25.0,33,0.00,,,-99.99,WeatherLink 5.7,2013-02-08 07:20:00,
2013-02-08 00:25:00,52.1,23.8,29.93,NNE,22,19.0,27.0,33,0.00,,,-99.99,WeatherLink 5.7,2013-02-08 07:25:00,
2013-02-08 00:30:00,52.1,23.8,29.93,NNE,22,19.0,27.0,33,0.00,,,-99.99,WeatherLink 5.7,2013-02-08 07:30:00,
2013-02-08 00:35:00,52.2,23.9,29.93,North,0,20.0,29.0,33,0.00,,,-99.99,WeatherLink 5.7,2013-02-08 07:35:00,
2013-02-08 00:40:00,51.9,23.7,29.93,North,0,20.0,30.0,33,0.00,,,-99.99,WeatherLink 5.7,2013-02-08 07:40:00,
2013-02-08 00:45:00,52.1,23.8,29.93,North,0,20.0,30.0,33,0.00,,,-99.99,WeatherLink 5.7,2013-02-08 07:45:00,
2013-02-08 00:50:00,52.1,23.8,29.93,NNE,22,19.0,27.0,33,0.00,,,-99.99,WeatherLink 5.7,2013-02-08 07:50:00,
2013-02-08 00:55:00,52.0,23.8,29.93,North,0,18.0,30.0,33,0.00,,,-99.99,WeatherLink 5.7,2013-02-08 07:55:00,
2013-02-08 01:00:00,51.9,23.7,29.93,NNE,22,16.0,22.0,33,0.00,,,-99.99,WeatherLink 5.7,2013-02-08 08:00:00,
2013-02-08 01:05:00,52.1,23.8,29.93,North,0,18.0,25.0,33,0.00,,,-99.99,WeatherLink 5.7,2013-02-08 08:05:00,
2013-02-08 01:10:00,51.9,23.7,29.93,North,0,16.0,26.0,33,0.00,,,-99.99,WeatherLink 5.7,2013-02-08 08:10:00,
2013-02-08 01:15:00,52.0,23.8,29.93,North,0,19.0,28.0,33,0.00,,,-99.99,WeatherLink 5.7,2013-02-08 08:15:00,
2013-02-08 01:20:00,51.8,23.6,29.93,North,0,16.0,25.0,33,0.00,,,-99.99,WeatherLink 5.7,2013-02-08 08:20:00,
2013-02-08 01:25:00,51.6,23.4,29.93,North,0,17.0,26.0,33,0.00,,,-99.99,WeatherLink 5.7,2013-02-08 08:25:00,
2013-02-08 01:30:00,51.6,23.4,29.93,North,0,17.0,26.0,33,0.00,,,-99.99,WeatherLink 5.7,2013-02-08 08:30:00,
2013-02-08 01:35:00,51.4,23.2,29.94,North,0,18.0,26.0,33,0.00,,,-99.99,WeatherLink 5.7,2013-02-08 08:35:00,
2013-02-08 01:40:00,51.2,23.0,29.94,North,0,16.0,24.0,33,0.00,,,-99.99,WeatherLink 5.7,2013-02-08 08:40:00,
2013-02-08 01:45:00,51.2,23.0,29.94,North,0,17.0,24.0,33,0.00,,,-99.99,WeatherLink 5.7,2013-02-08 08:45:00,
2013-02-08 01:50:00,51.5,23.3,29.94,North,0,19.0,25.0,33,0.00,,,-99.99,WeatherLink 5.7,2013-02-08 08:50:00,
2013-02-08 01:55:00,51.1,23.0,29.93,North,0,14.0,23.0,33,0.00,,,-99.99,WeatherLink 5.7,2013-02-08 08:55:00,
2013-02-08 02:00:00,51.0,22.9,29.93,North,0,15.0,21.0,33,0.00,,,-99.99,WeatherLink 5.7,2013-02-08 09:00:00,
2013-02-08 02:05:00,50.9,23.5,29.92,North,0,15.0,26.0,34,0.00,,,-99.99,WeatherLink 5.7,2013-02-08 09:05:00,
2013-02-08 02:10:00,50.8,23.4,29.91,North,0,14.0,21.0,34,0.00,,,-99.99,WeatherLink 5.7,2013-02-08 09:10:00,
2013-02-08 02:15:00,50.8,23.4,29.91,North,0,16.0,23.0,34,0.00,,,-99.99,WeatherLink 5.7,2013-02-08 09:15:00,
2013-02-08 02:20:00,50.8,23.4,29.91,North,0,15.0,23.0,34,0.00,,,-99.99,WeatherLink 5.7,2013-02-08 09:20:00,
2013-02-08 02:25:00,50.9,23.5,29.91,North,0,16.0,23.0,34,0.00,,,-99.99,WeatherLink 5.7,2013-02-08 09:25:00,
2013-02-08 02:30:00,50.9,22.8,29.91,North,0,14.0,20.0,33,0.00,,,-99.99,WeatherLink 5.7,2013-02-08 09:30:00,
2013-02-08 02:35:00,50.6,23.2,29.91,North,0,13.0,19.0,34,0.00,,,-99.99,WeatherLink 5.7,2013-02-08 09:35:00,
2013-02-08 02:40:00,50.5,23.1,29.91,North,0,12.0,20.0,34,0.00,,,-99.99,WeatherLink 5.7,2013-02-08 09:40:00,
2013-02-08 02:45:00,50.9,23.5,29.91,North,0,14.0,22.0,34,0.00,,,-99.99,WeatherLink 5.7,2013-02-08 09:45:00,
2013-02-08 02:50:00,51.0,23.6,29.91,NNE,22,15.0,21.0,34,0.00,,,-99.99,WeatherLink 5.7,2013-02-08 09:50:00,
2013-02-08 02:55:00,51.1,23.7,29.91,North,0,16.0,24.0,34,0.00,,,-99.99,WeatherLink 5.7,2013-02-08 09:55:00,
2013-02-08 03:00:00,51.0,23.6,29.91,North,0,14.0,24.0,34,0.00,,,-99.99,WeatherLink 5.7,2013-02-08 10:00:00,
2013-02-08 03:05:00,50.9,23.5,29.90,North,0,14.0,22.0,34,0.00,,,-99.99,WeatherLink 5.7,2013-02-08 10:05:00,
2013-02-08 03:10:00,51.5,23.3,29.90,North,0,20.0,27.0,33,0.00,,,-99.99,WeatherLink 5.7,2013-02-08 10:10:00,
2013-02-08 03:15:00,51.5,23.3,29.90,North,0,15.0,26.0,33,0.00,,,-99.99,WeatherLink 5.7,2013-02-08 10:15:00,
2013-02-08 03:20:00,51.6,23.4,29.89,North,0,20.0,27.0,33,0.00,,,-99.99,WeatherLink 5.7,2013-02-08 10:20:00,
2013-02-08 03:25:00,51.4,23.2,29.90,NNE,22,13.0,24.0,33,0.00,,,-99.99,WeatherLink 5.7,2013-02-08 10:25:00,
2013-02-08 03:30:00,50.9,23.5,29.90,NNE,22,13.0,22.0,34,0.00,,,-99.99,WeatherLink 5.7,2013-02-08 10:30:00,
2013-02-08 03:35:00,51.1,23.7,29.90,NNE,22,16.0,26.0,34,0.00,,,-99.99,WeatherLink 5.7,2013-02-08 10:35:00,
2013-02-08 03:40:00,51.3,23.8,29.90,North,0,18.0,27.0,34,0.00,,,-99.99,WeatherLink 5.7,2013-02-08 10:40:00,
2013-02-08 03:45:00,51.3,23.1,29.90,North,0,17.0,27.0,33,0.00,,,-99.99,WeatherLink 5.7,2013-02-08 10:45:00,
2013-02-08 03:50:00,50.8,23.4,29.90,North,0,13.0,20.0,34,0.00,,,-99.99,WeatherLink 5.7,2013-02-08 10:50:00,
2013-02-08 03:55:00,50.8,23.4,29.90,NNE,22,13.0,21.0,34,0.00,,,-99.99,WeatherLink 5.7,2013-02-08 10:55:00,
2013-02-08 04:00:00,50.9,23.5,29.89,North,0,14.0,23.0,34,0.00,,,-99.99,WeatherLink 5.7,2013-02-08 11:00:00,
2013-02-08 04:05:00,51.1,23.7,29.90,North,0,15.0,22.0,34,0.00,,,-99.99,WeatherLink 5.7,2013-02-08 11:05:00,
2013-02-08 04:10:00,51.0,23.6,29.90,North,0,15.0,23.0,34,0.00,,,-99.99,WeatherLink 5.7,2013-02-08 11:10:00,
2013-02-08 04:15:00,50.9,23.5,29.89,North,0,15.0,28.0,34,0.00,,,-99.99,WeatherLink 5.7,2013-02-08 11:15:00,
2013-02-08 04:20:00,51.2,23.8,29.89,North,0,18.0,27.0,34,0.00,,,-99.99,WeatherLink 5.7,2013-02-08 11:20:00,
2013-02-08 04:25:00,51.2,23.8,29.89,North,0,16.0,27.0,34,0.00,,,-99.99,WeatherLink 5.7,2013-02-08 11:25:00,
2013-02-08 04:30:00,51.3,23.8,29.89,North,0,18.0,27.0,34,0.00,,,-99.99,WeatherLink 5.7,2013-02-08 11:30:00,
2013-02-08 04:35:00,51.2,23.8,29.89,NNE,22,18.0,29.0,34,0.00,,,-99.99,WeatherLink 5.7,2013-02-08 11:35:00,
2013-02-08 04:40:00,51.2,23.8,29.90,NNE,22,17.0,27.0,34,0.00,,,-99.99,WeatherLink 5.7,2013-02-08 11:40:00,
2013-02-08 04:45:00,51.1,23.7,29.90,NNE,22,15.0,26.0,34,0.00,,,-99.99,WeatherLink 5.7,2013-02-08 11:45:00,
2013-02-08 04:50:00,50.8,23.4,29.90,NNE,22,15.0,23.0,34,0.00,,,-99.99,WeatherLink 5.7,2013-02-08 11:50:00,
2013-02-08 04:55:00,50.6,23.9,29.90,North,0,14.0,23.0,35,0.00,,,-99.99,WeatherLink 5.7,2013-02-08 11:55:00,
2013-02-08 05:00:00,50.6,23.9,29.90,North,0,13.0,23.0,35,0.00,,,-99.99,WeatherLink 5.7,2013-02-08 12:00:00,
2013-02-08 05:05:00,50.8,24.1,29.93,NNE,22,12.0,19.0,35,0.00,,,-99.99,WeatherLink 5.7,2013-02-08 12:05:00,
2013-02-08 05:10:00,50.7,24.0,29.93,North,0,14.0,22.0,35,0.00,,,-99.99,WeatherLink 5.7,2013-02-08 12:10:00,
2013-02-08 05:15:00,50.8,24.1,29.93,North,0,14.0,21.0,35,0.00,,,-99.99,WeatherLink 5.7,2013-02-08 12:15:00,
2013-02-08 05:20:00,50.7,24.0,29.93,North,0,14.0,20.0,35,0.00,,,-99.99,WeatherLink 5.7,2013-02-08 12:20:00,
2013-02-08 05:25:00,50.6,23.9,29.92,North,0,14.0,22.0,35,0.00,,,-99.99,WeatherLink 5.7,2013-02-08 12:25:00,
2013-02-08 05:30:00,50.5,23.8,29.92,NNE,22,14.0,21.0,35,0.00,,,-99.99,WeatherLink 5.7,2013-02-08 12:30:00,
2013-02-08 05:35:00,50.5,23.8,29.92,NNE,22,15.0,26.0,35,0.00,,,-99.99,WeatherLink 5.7,2013-02-08 12:35:00,
2013-02-08 05:40:00,50.6,23.9,29.91,North,0,17.0,29.0,35,0.00,,,-99.99,WeatherLink 5.7,2013-02-08 12:40:00,
2013-02-08 05:45:00,50.5,23.8,29.91,North,0,17.0,27.0,35,0.00,,,-99.99,WeatherLink 5.7,2013-02-08 12:45:00,
2013-02-08 05:50:00,50.5,23.8,29.91,North,0,18.0,27.0,35,0.00,,,-99.99,WeatherLink 5.7,2013-02-08 12:50:00,
2013-02-08 05:55:00,50.4,23.7,29.91,North,0,19.0,30.0,35,0.00,,,-99.99,WeatherLink 5.7,2013-02-08 12:55:00,
2013-02-08 06:00:00,50.4,23.7,29.91,North,0,20.0,27.0,35,0.00,,,-99.99,WeatherLink 5.7,2013-02-08 13:00:00,
2013-02-08 06:05:00,50.4,23.7,29.93,North,0,20.0,29.0,35,0.00,,,-99.99,WeatherLink 5.7,2013-02-08 13:05:00,
2013-02-08 06:10:00,50.3,24.3,29.92,North,0,20.0,29.0,36,0.00,,,-99.99,WeatherLink 5.7,2013-02-08 13:10:00,
2013-02-08 06:15:00,50.4,23.7,29.92,North,0,22.0,29.0,35,0.00,,,-99.99,WeatherLink 5.7,2013-02-08 13:15:00,
2013-02-08 06:20:00,50.2,24.2,29.93,North,0,20.0,28.0,36,0.00,,,-99.99,WeatherLink 5.7,2013-02-08 13:20:00,
2013-02-08 06:25:00,50.0,24.1,29.93,North,0,18.0,30.0,36,0.00,,,-99.99,WeatherLink 5.7,2013-02-08 13:25:00,
2013-02-08 06:30:00,49.9,24.0,29.93,North,0,18.0,29.0,36,0.00,,,-99.99,WeatherLink 5.7,2013-02-08 13:30:00,
2013-02-08 06:35:00,50.1,24.2,29.93,North,0,20.0,29.0,36,0.00,,,-99.99,WeatherLink 5.7,2013-02-08 13:35:00,
2013-02-08 06:40:00,49.9,24.0,29.93,North,0,17.0,24.0,36,0.00,,,-99.99,WeatherLink 5.7,2013-02-08 13:40:00,
2013-02-08 06:45:00,50.0,24.1,29.93,North,0,18.0,28.0,36,0.00,,,-99.99,WeatherLink 5.7,2013-02-08 13:45:00,
2013-02-08 06:50:00,50.0,24.1,29.94,North,0,17.0,29.0,36,0.00,,,-99.99,WeatherLink 5.7,2013-02-08 13:50:00,
2013-02-08 06:55:00,49.9,24.0,29.94,North,0,20.0,33.0,36,0.00,,,-99.99,WeatherLink 5.7,2013-02-08 13:55:00,
2013-02-08 07:00:00,50.1,24.2,29.94,North,0,20.0,32.0,36,0.00,,,-99.99,WeatherLink 5.7,2013-02-08 14:00:00,
2013-02-08 07:05:00,50.1,24.2,29.95,North,0,18.0,29.0,36,0.00,,,-99.99,WeatherLink 5.7,2013-02-08 14:05:00,
2013-02-08 07:10:00,50.4,24.4,29.95,North,0,21.0,30.0,36,0.00,,,-99.99,WeatherLink 5.7,2013-02-08 14:10:00,
2013-02-08 07:15:00,50.8,24.8,29.94,North,0,19.0,31.0,36,0.00,,,-99.99,WeatherLink 5.7,2013-02-08 14:15:00,
2013-02-08 07:20:00,51.0,25.0,29.94,North,0,20.0,27.0,36,0.00,,,-99.99,WeatherLink 5.7,2013-02-08 14:20:00,
2013-02-08 07:25:00,51.0,25.0,29.94,North,0,21.0,29.0,36,0.00,,,-99.99,WeatherLink 5.7,2013-02-08 14:25:00,
2013-02-08 07:30:00,50.6,24.6,29.94,North,0,19.0,29.0,36,0.00,,,-99.99,WeatherLink 5.7,2013-02-08 14:30:00,
2013-02-08 07:35:00,50.7,24.7,29.94,North,0,17.0,25.0,36,0.00,,,-99.99,WeatherLink 5.7,2013-02-08 14:35:00,
2013-02-08 07:40:00,51.1,25.0,29.94,North,0,18.0,25.0,36,0.00,,,-99.99,WeatherLink 5.7,2013-02-08 14:40:00,
2013-02-08 07:45:00,51.4,25.3,29.94,North,0,18.0,28.0,36,0.00,,,-99.99,WeatherLink 5.7,2013-02-08 14:45:00,
2013-02-08 07:50:00,51.5,25.4,29.94,NNW,337,18.0,30.0,36,0.00,,,-99.99,WeatherLink 5.7,2013-02-08 14:50:00,
2013-02-08 07:55:00,52.0,25.2,29.94,NNW,337,22.0,32.0,35,0.00,,,-99.99,WeatherLink 5.7,2013-02-08 14:55:00,
2013-02-08 08:00:00,52.3,25.4,29.94,North,0,20.0,30.0,35,0.00,,,-99.99,WeatherLink 5.7,2013-02-08 15:00:00,
2013-02-08 08:05:00,51.9,25.1,29.93,NNW,337,20.0,34.0,35,0.00,,,-99.99,WeatherLink 5.7,2013-02-08 15:05:00,
2013-02-08 08:10:00,51.8,25.0,29.93,NNW,337,22.0,37.0,35,0.00,,,-99.99,WeatherLink 5.7,2013-02-08 15:10:00,
2013-02-08 08:15:00,51.9,25.1,29.93,NNW,337,24.0,32.0,35,0.00,,,-99.99,WeatherLink 5.7,2013-02-08 15:15:00,
2013-02-08 08:20:00,52.3,25.4,29.93,NNW,337,22.0,32.0,35,0.00,,,-99.99,WeatherLink 5.7,2013-02-08 15:20:00,
2013-02-08 08:25:00,52.7,25.1,29.93,NNW,337,19.0,28.0,34,0.00,,,-99.99,WeatherLink 5.7,2013-02-08 15:25:00,
2013-02-08 08:30:00,53.2,25.5,29.93,NNW,337,20.0,29.0,34,0.00,,,-99.99,WeatherLink 5.7,2013-02-08 15:30:00,
2013-02-08 08:35:00,53.4,25.0,29.92,NNW,337,20.0,29.0,33,0.00,,,-99.99,WeatherLink 5.7,2013-02-08 15:35:00,
2013-02-08 08:40:00,53.4,25.0,29.93,NNW,337,21.0,28.0,33,0.00,,,-99.99,WeatherLink 5.7,2013-02-08 15:40:00,
2013-02-08 08:45:00,54.0,25.5,29.93,NNW,337,17.0,25.0,33,0.00,,,-99.99,WeatherLink 5.7,2013-02-08 15:45:00,
2013-02-08 08:50:00,54.2,25.7,29.93,NNW,337,17.0,24.0,33,0.00,,,-99.99,WeatherLink 5.7,2013-02-08 15:50:00,
2013-02-08 08:55:00,54.7,25.4,29.92,NNW,337,20.0,28.0,32,0.00,,,-99.99,WeatherLink 5.7,2013-02-08 15:55:00,
2013-02-08 09:00:00,54.1,25.6,29.93,NNW,337,23.0,31.0,33,0.00,,,-99.99,WeatherLink 5.7,2013-02-08 16:00:00,
2013-02-08 09:05:00,53.9,25.4,29.93,NNW,337,21.0,31.0,33,0.00,,,-99.99,WeatherLink 5.7,2013-02-08 16:05:00,
2013-02-08 09:10:00,53.6,25.2,29.93,NNW,337,21.0,29.0,33,0.00,,,-99.99,WeatherLink 5.7,2013-02-08 16:10:00,
2013-02-08 09:15:00,53.6,25.9,29.92,NNW,337,22.0,32.0,34,0.00,,,-99.99,WeatherLink 5.7,2013-02-08 16:15:00,
2013-02-08 09:20:00,54.6,26.0,29.93,NNW,337,21.0,29.0,33,0.00,,,-99.99,WeatherLink 5.7,2013-02-08 16:20:00,
2013-02-08 09:25:00,54.5,26.0,29.91,NNW,337,24.0,32.0,33,0.00,,,-99.99,WeatherLink 5.7,2013-02-08 16:25:00,
2013-02-08 09:30:00,54.6,26.0,29.91,NNW,337,23.0,31.0,33,0.00,,,-99.99,WeatherLink 5.7,2013-02-08 16:30:00,
2013-02-08 09:35:00,55.0,26.4,29.91,NNW,337,23.0,35.0,33,0.00,,,-99.99,WeatherLink 5.7,2013-02-08 16:35:00,
2013-02-08 09:40:00,54.9,26.3,29.91,NNW,337,22.0,31.0,33,0.00,,,-99.99,WeatherLink 5.7,2013-02-08 16:40:00,
2013-02-08 09:45:00,54.5,26.0,29.92,NNW,337,22.0,35.0,33,0.00,,,-99.99,WeatherLink 5.7,2013-02-08 16:45:00,
2013-02-08 09:50:00,54.6,26.0,29.92,NNW,337,23.0,35.0,33,0.00,,,-99.99,WeatherLink 5.7,2013-02-08 16:50:00,
2013-02-08 09:55:00,54.6,26.0,29.92,NNW,337,23.0,33.0,33,0.00,,,-99.99,WeatherLink 5.7,2013-02-08 16:55:00,
2013-02-08 10:00:00,55.1,26.5,29.92,NNW,337,19.0,27.0,33,0.00,,,-99.99,WeatherLink 5.7,2013-02-08 17:00:00,
2013-02-08 10:05:00,55.2,25.8,29.92,NNW,337,22.0,29.0,32,0.00,,,-99.99,WeatherLink 5.7,2013-02-08 17:05:00,
2013-02-08 10:10:00,55.3,25.9,29.92,NNW,337,21.0,29.0,32,0.00,,,-99.99,WeatherLink 5.7,2013-02-08 17:10:00,
2013-02-08 10:15:00,55.4,26.7,29.91,NNW,337,22.0,30.0,33,0.00,,,-99.99,WeatherLink 5.7,2013-02-08 17:15:00,
2013-02-08 10:20:00,55.9,26.4,29.91,NNW,337,21.0,31.0,32,0.00,,,-99.99,WeatherLink 5.7,2013-02-08 17:20:00,
2013-02-08 10:25:00,56.0,26.5,29.91,NNW,337,22.0,32.0,32,0.00,,,-99.99,WeatherLink 5.7,2013-02-08 17:25:00,
2013-02-08 10:30:00,56.3,26.8,29.91,NNW,337,21.0,28.0,32,0.00,,,-99.99,WeatherLink 5.7,2013-02-08 17:30:00,
2013-02-08 10:35:00,56.4,26.9,29.91,NNW,337,20.0,27.0,32,0.00,,,-99.99,WeatherLink 5.7,2013-02-08 17:35:00,
2013-02-08 10:40:00,56.9,27.3,29.91,NNW,337,19.0,27.0,32,0.00,,,-99.99,WeatherLink 5.7,2013-02-08 17:40:00,
2013-02-08 10:45:00,57.2,26.8,29.91,NNW,337,21.0,28.0,31,0.00,,,-99.99,WeatherLink 5.7,2013-02-08 17:45:00,
2013-02-08 10:50:00,56.6,27.0,29.90,NNW,337,22.0,29.0,32,0.00,,,-99.99,WeatherLink 5.7,2013-02-08 17:50:00,
2013-02-08 10:55:00,56.9,27.3,29.90,NNW,337,19.0,24.0,32,0.00,,,-99.99,WeatherLink 5.7,2013-02-08 17:55:00,
2013-02-08 11:00:00,57.3,26.9,29.90,NNW,337,20.0,25.0,31,0.00,,,-99.99,WeatherLink 5.7,2013-02-08 18:00:00,
2013-02-08 11:05:00,57.2,26.8,29.89,NNW,337,21.0,31.0,31,0.00,,,-99.99,WeatherLink 5.7,2013-02-08 18:05:00,
2013-02-08 11:10:00,57.5,27.1,29.89,NNW,337,20.0,31.0,31,0.00,,,-99.99,WeatherLink 5.7,2013-02-08 18:10:00,
2013-02-08 11:15:00,57.7,27.2,29.88,NNW,337,19.0,26.0,31,0.00,,,-99.99,WeatherLink 5.7,2013-02-08 18:15:00,
2013-02-08 11:20:00,58.2,27.7,29.87,NNW,337,19.0,27.0,31,0.00,,,-99.99,WeatherLink 5.7,2013-02-08 18:20:00,
2013-02-08 11:25:00,58.4,27.1,29.87,NNW,337,21.0,29.0,30,0.00,,,-99.99,WeatherLink 5.7,2013-02-08 18:25:00,
2013-02-08 11:30:00,58.4,27.1,29.87,NNW,337,19.0,26.0,30,0.00,,,-99.99,WeatherLink 5.7,2013-02-08 18:30:00,
2013-02-08 11:35:00,58.6,27.2,29.87,NNW,337,21.0,28.0,30,0.00,,,-99.99,WeatherLink 5.7,2013-02-08 18:35:00,
2013-02-08 11:40:00,59.0,27.6,29.86,NNW,337,19.0,25.0,30,0.00,,,-99.99,WeatherLink 5.7,2013-02-08 18:40:00,
2013-02-08 11:45:00,59.5,27.2,29.86,NNW,337,19.0,27.0,29,0.00,,,-99.99,WeatherLink 5.7,2013-02-08 18:45:00,
2013-02-08 11:50:00,59.7,28.2,29.84,NNW,337,21.0,29.0,30,0.00,,,-99.99,WeatherLink 5.7,2013-02-08 18:50:00,
2013-02-08 11:55:00,59.0,26.8,29.85,NNW,337,22.0,30.0,29,0.00,,,-99.99,WeatherLink 5.7,2013-02-08 18:55:00,
2013-02-08 12:00:00,59.2,27.7,29.84,NNW,337,22.0,31.0,30,0.00,,,-99.99,WeatherLink 5.7,2013-02-08 19:00:00,
2013-02-08 12:05:00,58.9,27.5,29.84,NNW,337,22.0,30.0,30,0.00,,,-99.99,WeatherLink 5.7,2013-02-08 19:05:00,
2013-02-08 12:10:00,59.0,27.6,29.84,NNW,337,21.0,30.0,30,0.00,,,-99.99,WeatherLink 5.7,2013-02-08 19:10:00,
2013-02-08 12:15:00,59.4,27.1,29.83,NNW,337,19.0,28.0,29,0.00,,,-99.99,WeatherLink 5.7,2013-02-08 19:15:00,
2013-02-08 12:20:00,59.4,27.9,29.83,NNW,337,25.0,35.0,30,0.00,,,-99.99,WeatherLink 5.7,2013-02-08 19:20:00,
2013-02-08 12:25:00,59.4,27.9,29.82,NNW,337,23.0,31.0,30,0.00,,,-99.99,WeatherLink 5.7,2013-02-08 19:25:00,
2013-02-08 12:30:00,59.5,28.0,29.82,NNW,337,22.0,29.0,30,0.00,,,-99.99,WeatherLink 5.7,2013-02-08 19:30:00,
2013-02-08 12:35:00,59.9,27.5,29.81,NNW,337,21.0,28.0,29,0.00,,,-99.99,WeatherLink 5.7,2013-02-08 19:35:00,
2013-02-08 12:40:00,60.4,28.0,29.81,NNW,337,22.0,30.0,29,0.00,,,-99.99,WeatherLink 5.7,2013-02-08 19:40:00,
2013-02-08 12:45:00,60.7,27.4,29.81,NNW,337,22.0,33.0,28,0.00,,,-99.99,WeatherLink 5.7,2013-02-08 19:45:00,
2013-02-08 12:50:00,61.2,27.8,29.80,NNW,337,20.0,26.0,28,0.00,,,-99.99,WeatherLink 5.7,2013-02-08 19:50:00,
2013-02-08 12:55:00,61.4,28.0,29.80,NNW,337,20.0,28.0,28,0.00,,,-99.99,WeatherLink 5.7,2013-02-08 19:55:00,
2013-02-08 13:05:00,61.1,27.7,29.80,NNW,337,17.0,25.0,28,0.00,,,-99.99,WeatherLink 5.7,2013-02-08 20:05:00,
2013-02-08 13:10:00,61.4,28.0,29.79,NNW,337,20.0,28.0,28,0.00,,,-99.99,WeatherLink 5.7,2013-02-08 20:10:00,
2013-02-08 13:15:00,61.1,27.7,29.80,NNW,337,21.0,32.0,28,0.00,,,-99.99,WeatherLink 5.7,2013-02-08 20:15:00,
2013-02-08 13:20:00,62.5,28.0,29.79,NNW,337,17.0,26.0,27,0.00,,,-99.99,WeatherLink 5.7,2013-02-08 20:20:00,
2013-02-08 13:30:00,62.1,27.7,29.79,NNW,337,18.0,26.0,27,0.00,,,-99.99,WeatherLink 5.7,2013-02-08 20:30:00,
2013-02-08 13:35:00,62.8,28.3,29.77,NNW,337,16.0,26.0,27,0.00,,,-99.99,WeatherLink 5.7,2013-02-08 20:35:00,
2013-02-08 13:40:00,62.3,27.9,29.78,NNW,337,16.0,24.0,27,0.00,,,-99.99,WeatherLink 5.7,2013-02-08 20:40:00,
2013-02-08 13:55:00,63.2,27.7,29.76,North,0,14.0,24.0,26,0.00,,,-99.99,WeatherLink 5.7,2013-02-08 20:55:00,
2013-02-08 14:00:00,63.0,27.5,29.76,NNW,337,16.0,26.0,26,0.00,,,-99.99,WeatherLink 5.7,2013-02-08 21:00:00,
2013-02-08 14:05:00,63.6,28.1,29.76,NNW,337,14.0,25.0,26,0.00,,,-99.99,WeatherLink 5.7,2013-02-08 21:05:00,
2013-02-08 14:10:00,65.0,27.3,29.74,NW,315,12.0,22.0,24,0.00,,,-99.99,WeatherLink 5.7,2013-02-08 21:10:00,
2013-02-08 14:15:00,66.0,26.0,29.74,NNE,22,15.0,24.0,22,0.00,,,-99.99,WeatherLink 5.7,2013-02-08 21:15:00,
2013-02-08 14:20:00,65.8,25.9,29.73,North,0,12.0,20.0,22,0.00,,,-99.99,WeatherLink 5.7,2013-02-08 21:20:00,
2013-02-08 14:25:00,66.1,26.1,29.73,North,0,12.0,18.0,22,0.00,,,-99.99,WeatherLink 5.7,2013-02-08 21:25:00,
2013-02-08 14:30:00,67.1,23.4,29.72,NE,45,12.0,19.0,19,0.00,,,-99.99,WeatherLink 5.7,2013-02-08 21:30:00,
2013-02-08 14:35:00,67.4,22.4,29.72,NNE,22,13.0,21.0,18,0.00,,,-99.99,WeatherLink 5.7,2013-02-08 21:35:00,
2013-02-08 14:40:00,67.4,22.4,29.72,North,0,11.0,20.0,18,0.00,,,-99.99,WeatherLink 5.7,2013-02-08 21:40:00,
2013-02-08 14:45:00,67.1,22.1,29.72,NNE,22,13.0,25.0,18,0.00,,,-99.99,WeatherLink 5.7,2013-02-08 21:45:00,
2013-02-08 14:50:00,67.0,24.6,29.71,NNE,22,12.0,22.0,20,0.00,,,-99.99,WeatherLink 5.7,2013-02-08 21:50:00,
2013-02-08 14:55:00,66.0,23.7,29.72,NNW,337,12.0,20.0,20,0.00,,,-99.99,WeatherLink 5.7,2013-02-08 21:55:00,
2013-02-08 15:00:00,65.6,23.4,29.71,North,0,12.0,22.0,20,0.00,,,-99.99,WeatherLink 5.7,2013-02-08 22:00:00,
2013-02-08 15:05:00,65.7,24.7,29.71,North,0,16.0,25.0,21,0.00,,,-99.99,WeatherLink 5.7,2013-02-08 22:05:00,
2013-02-08 15:10:00,65.4,24.4,29.71,NNW,337,13.0,22.0,21,0.00,,,-99.99,WeatherLink 5.7,2013-02-08 22:10:00,
2013-02-08 15:15:00,65.8,24.7,29.70,North,0,13.0,21.0,21,0.00,,,-99.99,WeatherLink 5.7,2013-02-08 22:15:00,
2013-02-08 15:20:00,65.7,24.7,29.70,North,0,10.0,18.0,21,0.00,,,-99.99,WeatherLink 5.7,2013-02-08 22:20:00,
2013-02-08 15:25:00,65.6,24.6,29.70,NNE,22,13.0,25.0,21,0.00,,,-99.99,WeatherLink 5.7,2013-02-08 22:25:00,
2013-02-08 15:30:00,65.8,23.6,29.70,NNE,22,12.0,23.0,20,0.00,,,-99.99,WeatherLink 5.7,2013-02-08 22:30:00,
2013-02-08 15:35:00,65.6,23.4,29.70,NNE,22,12.0,16.0,20,0.00,,,-99.99,WeatherLink 5.7,2013-02-08 22:35:00,
2013-02-08 15:40:00,65.7,22.3,29.70,NE,45,12.0,20.0,19,0.00,,,-99.99,WeatherLink 5.7,2013-02-08 22:40:00,
2013-02-08 15:45:00,66.1,22.6,29.70,NE,45,11.0,21.0,19,0.00,,,-99.99,WeatherLink 5.7,2013-02-08 22:45:00,
2013-02-08 15:50:00,66.3,22.8,29.70,NE,45,11.0,20.0,19,0.00,,,-99.99,WeatherLink 5.7,2013-02-08 22:50:00,
2013-02-08 15:55:00,66.2,25.1,29.69,NNE,22,12.0,19.0,21,0.00,,,-99.99,WeatherLink 5.7,2013-02-08 22:55:00,
2013-02-08 16:00:00,65.9,24.8,29.70,North,0,12.0,20.0,21,0.00,,,-99.99,WeatherLink 5.7,2013-02-08 23:00:00,
2013-02-08 16:05:00,65.6,25.7,29.70,North,0,13.0,19.0,22,0.00,,,-99.99,WeatherLink 5.7,2013-02-08 23:05:00,
2013-02-08 16:10:00,65.5,25.6,29.69,North,0,11.0,18.0,22,0.00,,,-99.99,WeatherLink 5.7,2013-02-08 23:10:00,
2013-02-08 16:15:00,65.3,25.4,29.69,North,0,13.0,22.0,22,0.00,,,-99.99,WeatherLink 5.7,2013-02-08 23:15:00,
2013-02-08 16:20:00,65.0,25.2,29.69,North,0,15.0,21.0,22,0.00,,,-99.99,WeatherLink 5.7,2013-02-08 23:20:00,
2013-02-08 16:25:00,64.9,24.0,29.69,North,0,13.0,20.0,21,0.00,,,-99.99,WeatherLink 5.7,2013-02-08 23:25:00,
2013-02-08 16:30:00,64.9,24.0,29.69,North,0,10.0,21.0,21,0.00,,,-99.99,WeatherLink 5.7,2013-02-08 23:30:00,
2013-02-08 16:35:00,64.8,22.7,29.69,North,0,11.0,19.0,20,0.00,,,-99.99,WeatherLink 5.7,2013-02-08 23:35:00,
2013-02-08 16:40:00,64.8,21.5,29.69,North,0,11.0,20.0,19,0.00,,,-99.99,WeatherLink 5.7,2013-02-08 23:40:00,
2013-02-08 16:45:00,64.6,21.4,29.69,NNE,22,13.0,19.0,19,0.00,,,-99.99,WeatherLink 5.7,2013-02-08 23:45:00,
2013-02-08 16:50:00,64.3,21.1,29.70,NNE,22,11.0,15.0,19,0.00,,,-99.99,WeatherLink 5.7,2013-02-08 23:50:00,
2013-02-08 16:55:00,64.2,21.0,29.69,North,0,9.0,14.0,19,0.00,,,-99.99,WeatherLink 5.7,2013-02-08 23:55:00,
2013-02-08 17:00:00,64.0,20.9,29.69,NNE,22,9.0,13.0,19,0.00,,,-99.99,WeatherLink 5.7,2013-02-09 00:00:00,
2013-02-08 17:05:00,63.8,21.9,29.69,NNE,22,10.0,14.0,20,0.00,,,-99.99,WeatherLink 5.7,2013-02-09 00:05:00,
2013-02-08 17:10:00,63.4,21.6,29.69,NNE,22,8.0,14.0,20,0.00,,,-99.99,WeatherLink 5.7,2013-02-09 00:10:00,
2013-02-08 17:15:00,63.0,21.2,29.70,NNE,22,7.0,11.0,20,0.00,,,-99.99,WeatherLink 5.7,2013-02-09 00:15:00,
2013-02-08 17:20:00,62.7,21.0,29.70,NNE,22,7.0,10.0,20,0.00,,,-99.99,WeatherLink 5.7,2013-02-09 00:20:00,
2013-02-08 17:25:00,62.3,21.8,29.70,NNE,22,7.0,11.0,21,0.00,,,-99.99,WeatherLink 5.7,2013-02-09 00:25:00,
2013-02-08 17:30:00,61.8,21.4,29.70,NNE,22,6.0,9.0,21,0.00,,,-99.99,WeatherLink 5.7,2013-02-09 00:30:00,
2013-02-08 17:35:00,61.4,21.1,29.70,NNE,22,6.0,8.0,21,0.00,,,-99.99,WeatherLink 5.7,2013-02-09 00:35:00,
2013-02-08 17:40:00,60.8,20.6,29.71,NNE,22,6.0,7.0,21,0.00,,,-99.99,WeatherLink 5.7,2013-02-09 00:40:00,
2013-02-08 17:45:00,60.1,20.0,29.71,NNE,22,5.0,6.0,21,0.00,,,-99.99,WeatherLink 5.7,2013-02-09 00:45:00,
2013-02-08 17:50:00,59.3,20.4,29.72,NNE,22,4.0,7.0,22,0.00,,,-99.99,WeatherLink 5.7,2013-02-09 00:50:00,
2013-02-08 17:55:00,59.0,20.2,29.72,North,0,6.0,7.0,22,0.00,,,-99.99,WeatherLink 5.7,2013-02-09 00:55:00,
2013-02-08 18:00:00,59.0,20.2,29.72,North,0,7.0,9.0,22,0.00,,,-99.99,WeatherLink 5.7,2013-02-09 01:00:00,
2013-02-08 18:05:00,59.0,20.2,29.72,NNW,337,7.0,10.0,22,0.00,,,-99.99,WeatherLink 5.7,2013-02-09 01:05:00,
2013-02-08 18:10:00,59.0,20.2,29.71,NNW,337,7.0,9.0,22,0.00,,,-99.99,WeatherLink 5.7,2013-02-09 01:10:00,
2013-02-08 18:15:00,58.8,20.0,29.72,NNW,337,6.0,8.0,22,0.00,,,-99.99,WeatherLink 5.7,2013-02-09 01:15:00,
2013-02-08 18:20:00,58.2,19.5,29.72,NNW,337,6.0,8.0,22,0.00,,,-99.99,WeatherLink 5.7,2013-02-09 01:20:00,
2013-02-08 18:30:00,57.2,19.7,29.73,NNW,337,7.0,9.0,23,0.00,,,-99.99,WeatherLink 5.7,2013-02-09 01:30:00,
2013-02-08 18:35:00,57.3,19.8,29.73,NNW,337,7.0,9.0,23,0.00,,,-99.99,WeatherLink 5.7,2013-02-09 01:35:00,
2013-02-08 18:40:00,57.5,18.9,29.72,NNW,337,6.0,7.0,22,0.00,,,-99.99,WeatherLink 5.7,2013-02-09 01:40:00,
2013-02-08 18:45:00,57.6,19.0,29.72,NNW,337,7.0,9.0,22,0.00,,,-99.99,WeatherLink 5.7,2013-02-09 01:45:00,
2013-02-08 18:50:00,57.7,19.1,29.72,NNW,337,7.0,8.0,22,0.00,,,-99.99,WeatherLink 5.7,2013-02-09 01:50:00,
2013-02-08 18:55:00,57.6,19.0,29.72,NNW,337,7.0,10.0,22,0.00,,,-99.99,WeatherLink 5.7,2013-02-09 01:55:00,
2013-02-08 19:00:00,57.4,19.9,29.73,NNW,337,8.0,11.0,23,0.00,,,-99.99,WeatherLink 5.7,2013-02-09 02:00:00,
2013-02-08 19:05:00,57.5,19.9,29.72,NW,315,8.0,11.0,23,0.00,,,-99.99,WeatherLink 5.7,2013-02-09 02:05:00,
2013-02-08 19:10:00,57.7,20.1,29.72,NW,315,8.0,11.0,23,0.00,,,-99.99,WeatherLink 5.7,2013-02-09 02:10:00,
2013-02-08 19:15:00,57.7,20.1,29.72,NW,315,8.0,12.0,23,0.00,,,-99.99,WeatherLink 5.7,2013-02-09 02:15:00,
2013-02-08 19:20:00,57.7,20.1,29.72,NW,315,6.0,8.0,23,0.00,,,-99.99,WeatherLink 5.7,2013-02-09 02:20:00,
2013-02-08 19:25:00,58.0,21.4,29.71,NW,315,7.0,12.0,24,0.00,,,-99.99,WeatherLink 5.7,2013-02-09 02:25:00,
2013-02-08 19:30:00,59.0,22.2,29.72,NW,315,9.0,13.0,24,0.00,,,-99.99,WeatherLink 5.7,2013-02-09 02:30:00,
2013-02-08 19:35:00,59.5,21.6,29.70,NW,315,9.0,15.0,23,0.00,,,-99.99,WeatherLink 5.7,2013-02-09 02:35:00,
2013-02-08 19:40:00,59.2,21.4,29.72,NNW,337,8.0,12.0,23,0.00,,,-99.99,WeatherLink 5.7,2013-02-09 02:40:00,
2013-02-08 19:45:00,59.0,22.2,29.72,NNW,337,6.0,10.0,24,0.00,,,-99.99,WeatherLink 5.7,2013-02-09 02:45:00,
2013-02-08 19:50:00,58.3,21.6,29.72,NNW,337,7.0,13.0,24,0.00,,,-99.99,WeatherLink 5.7,2013-02-09 02:50:00,
2013-02-08 19:55:00,58.1,21.4,29.72,NNW,337,7.0,11.0,24,0.00,,,-99.99,WeatherLink 5.7,2013-02-09 02:55:00,
2013-02-08 20:00:00,58.0,21.4,29.72,NNW,337,8.0,12.0,24,0.00,,,-99.99,WeatherLink 5.7,2013-02-09 03:00:00,
2013-02-08 20:05:00,57.9,22.2,29.71,NNW,337,10.0,15.0,25,0.00,,,-99.99,WeatherLink 5.7,2013-02-09 03:05:00,
2013-02-08 20:10:00,58.1,22.4,29.71,NNW,337,9.0,14.0,25,0.00,,,-99.99,WeatherLink 5.7,2013-02-09 03:10:00,
2013-02-08 20:15:00,57.5,20.9,29.72,NNW,337,7.0,10.0,24,0.00,,,-99.99,WeatherLink 5.7,2013-02-09 03:15:00,
2013-02-08 20:20:00,57.1,20.6,29.73,NNW,337,7.0,10.0,24,0.00,,,-99.99,WeatherLink 5.7,2013-02-09 03:20:00,
2013-02-08 20:25:00,57.0,19.5,29.73,NNW,337,7.0,10.0,23,0.00,,,-99.99,WeatherLink 5.7,2013-02-09 03:25:00,
2013-02-08 20:30:00,56.8,18.3,29.73,NNW,337,6.0,10.0,22,0.00,,,-99.99,WeatherLink 5.7,2013-02-09 03:30:00,
2013-02-08 20:35:00,56.3,17.9,29.73,NNW,337,7.0,11.0,22,0.00,,,-99.99,WeatherLink 5.7,2013-02-09 03:35:00,
2013-02-08 20:40:00,56.0,16.6,29.73,NNW,337,8.0,11.0,21,0.00,,,-99.99,WeatherLink 5.7,2013-02-09 03:40:00,
2013-02-08 20:45:00,56.0,15.4,29.73,NNW,337,9.0,11.0,20,0.00,,,-99.99,WeatherLink 5.7,2013-02-09 03:45:00,
2013-02-08 20:50:00,55.9,15.3,29.73,NNW,337,7.0,10.0,20,0.00,,,-99.99,WeatherLink 5.7,2013-02-09 03:50:00,
2013-02-08 20:55:00,55.7,14.0,29.73,NNW,337,7.0,9.0,19,0.00,,,-99.99,WeatherLink 5.7,2013-02-09 03:55:00,
2013-02-08 21:00:00,55.4,13.8,29.73,NNW,337,7.0,9.0,19,0.00,,,-99.99,WeatherLink 5.7,2013-02-09 04:00:00,
2013-02-08 21:05:00,55.0,13.4,29.72,NNW,337,6.0,9.0,19,0.00,,,-99.99,WeatherLink 5.7,2013-02-09 04:05:00,
2013-02-08 21:10:00,54.6,14.3,29.72,NNW,337,6.0,8.0,20,0.00,,,-99.99,WeatherLink 5.7,2013-02-09 04:10:00,
2013-02-08 21:15:00,54.3,14.0,29.73,NNW,337,6.0,7.0,20,0.00,,,-99.99,WeatherLink 5.7,2013-02-09 04:15:00,
2013-02-08 21:20:00,54.1,15.0,29.73,NNW,337,6.0,8.0,21,0.00,,,-99.99,WeatherLink 5.7,2013-02-09 04:20:00,
2013-02-08 21:25:00,53.9,14.8,29.73,NNW,337,5.0,7.0,21,0.00,,,-99.99,WeatherLink 5.7,2013-02-09 04:25:00,
2013-02-08 21:30:00,54.0,14.9,29.73,NNW,337,8.0,11.0,21,0.00,,,-99.99,WeatherLink 5.7,2013-02-09 04:30:00,
2013-02-08 21:35:00,54.2,15.1,29.73,NNW,337,8.0,10.0,21,0.00,,,-99.99,WeatherLink 5.7,2013-02-09 04:35:00,
2013-02-08 21:40:00,54.1,15.0,29.73,NNW,337,6.0,9.0,21,0.00,,,-99.99,WeatherLink 5.7,2013-02-09 04:40:00,
2013-02-08 21:45:00,54.0,13.8,29.73,NNW,337,8.0,11.0,20,0.00,,,-99.99,WeatherLink 5.7,2013-02-09 04:45:00,
2013-02-08 21:50:00,54.2,12.8,29.73,NNW,337,9.0,12.0,19,0.00,,,-99.99,WeatherLink 5.7,2013-02-09 04:50:00,
2013-02-08 21:55:00,54.2,12.8,29.73,NNW,337,8.0,11.0,19,0.00,,,-99.99,WeatherLink 5.7,2013-02-09 04:55:00,
2013-02-08 22:00:00,54.0,12.6,29.73,NNW,337,7.0,11.0,19,0.00,,,-99.99,WeatherLink 5.7,2013-02-09 05:00:00,
2013-02-08 22:05:00,53.7,12.4,29.72,NNW,337,6.0,10.0,19,0.00,,,-99.99,WeatherLink 5.7,2013-02-09 05:05:00,
2013-02-08 22:10:00,54.1,11.5,29.72,NNW,337,9.0,12.0,18,0.00,,,-99.99,WeatherLink 5.7,2013-02-09 05:10:00,
2013-02-08 22:15:00,54.6,11.9,29.71,NNW,337,8.0,12.0,18,0.00,,,-99.99,WeatherLink 5.7,2013-02-09 05:15:00,
2013-02-08 22:20:00,54.6,11.9,29.71,NNW,337,6.0,8.0,18,0.00,,,-99.99,WeatherLink 5.7,2013-02-09 05:20:00,
2013-02-08 22:25:00,54.2,11.5,29.72,NNW,337,6.0,10.0,18,0.00,,,-99.99,WeatherLink 5.7,2013-02-09 05:25:00,
2013-02-08 22:30:00,54.2,11.5,29.72,NNE,22,7.0,12.0,18,0.00,,,-99.99,WeatherLink 5.7,2013-02-09 05:30:00,
2013-02-08 22:35:00,54.4,11.7,29.72,NE,45,5.0,13.0,18,0.00,,,-99.99,WeatherLink 5.7,2013-02-09 05:35:00,
2013-02-08 22:40:00,54.4,11.7,29.72,NE,45,3.0,6.0,18,0.00,,,-99.99,WeatherLink 5.7,2013-02-09 05:40:00,
2013-02-08 22:45:00,54.0,11.4,29.72,NE,45,4.0,7.0,18,0.00,,,-99.99,WeatherLink 5.7,2013-02-09 05:45:00,
2013-02-08 22:50:00,53.4,10.9,29.72,NE,45,5.0,9.0,18,0.00,,,-99.99,WeatherLink 5.7,2013-02-09 05:50:00,
2013-02-08 22:55:00,53.0,11.8,29.73,NE,45,6.0,10.0,19,0.00,,,-99.99,WeatherLink 5.7,2013-02-09 05:55:00,
2013-02-08 23:00:00,52.8,11.6,29.73,NE,45,7.0,10.0,19,0.00,,,-99.99,WeatherLink 5.7,2013-02-09 06:00:00,
2013-02-08 23:05:00,53.3,12.0,29.72,North,0,9.0,13.0,19,0.00,,,-99.99,WeatherLink 5.7,2013-02-09 06:05:00,
2013-02-08 23:10:00,53.3,12.0,29.72,North,0,5.0,8.0,19,0.00,,,-99.99,WeatherLink 5.7,2013-02-09 06:10:00,
2013-02-08 23:15:00,53.0,12.9,29.71,North,0,6.0,11.0,20,0.00,,,-99.99,WeatherLink 5.7,2013-02-09 06:15:00,
2013-02-08 23:20:00,53.2,13.1,29.71,North,0,6.0,10.0,20,0.00,,,-99.99,WeatherLink 5.7,2013-02-09 06:20:00,
2013-02-08 23:25:00,53.5,13.4,29.71,North,0,7.0,12.0,20,0.00,,,-99.99,WeatherLink 5.7,2013-02-09 06:25:00,
2013-02-08 23:30:00,53.6,14.5,29.71,NNE,22,5.0,10.0,21,0.00,,,-99.99,WeatherLink 5.7,2013-02-09 06:30:00,
2013-02-08 23:35:00,53.4,15.4,29.71,NE,45,6.0,14.0,22,0.00,,,-99.99,WeatherLink 5.7,2013-02-09 06:35:00,
2013-02-08 23:40:00,53.2,15.3,29.71,NE,45,4.0,8.0,22,0.00,,,-99.99,WeatherLink 5.7,2013-02-09 06:40:00,
2013-02-08 23:45:00,53.1,15.2,29.71,NE,45,4.0,7.0,22,0.00,,,-99.99,WeatherLink 5.7,2013-02-09 06:45:00,
2013-02-08 23:50:00,53.2,16.3,29.70,NE,45,7.0,14.0,23,0.00,,,-99.99,WeatherLink 5.7,2013-02-09 06:50:00,
2013-02-08 23:55:00,53.3,16.4,29.70,NE,45,7.0,12.0,23,0.00,,,-99.99,WeatherLink 5.7,2013-02-09 06:55:00,